When you browse on this site, cookies collect data to enhance your experience and personalize the content and advertising you see.
Visit our Privacy Policy to learn more. By continuing to use the site, you agree to this use of cookies and data.
  • In Hungary
  • List of Countries
  • For 7 days
  • Water Temperature
  • Weather Map
  • News
  • Weather Widgets
  • user-avatar
    Login

    Hourly Weather Kuchenyaevo

    Today, 14 October, Monday

    Time Temperature Precipitation Wind Pressure Humidity
    00:00 +8°C° 0 mm 6 mps 744 mmHg 84%
    01:00 +7°C° 0 mm 6 mps 744 mmHg 86%
    02:00 +7°C° 0 mm 6 mps 745 mmHg 88%
    03:00 +5°C° 0 mm 6 mps 745 mmHg 91%
    04:00 +5°C° 0 mm 6 mps 745 mmHg 91%
    05:00 +5°C° 0 mm 6 mps 745 mmHg 92%
    06:00 +5°C° 0 mm 6 mps 745 mmHg 93%
    07:00 +5°C° 0 mm 6 mps 746 mmHg 91%
    08:00 +7°C° 0 mm 6 mps 747 mmHg 89%
    09:00 +6°C° 0 mm 7 mps 747 mmHg 87%
    10:00 +6°C° 0 mm 7 mps 747 mmHg 86%
    11:00 +8°C° 0 mm 6 mps 747 mmHg 85%
    12:00 +8°C° 0 mm 6 mps 748 mmHg 85%
    13:00 +8°C° 0 mm 6 mps 748 mmHg 83%
    14:00 +8°C° 0 mm 6 mps 748 mmHg 82%
    15:00 +8°C° 0 mm 5 mps 748 mmHg 80%
    16:00 +8°C° 0 mm 5 mps 748 mmHg 81%
    17:00 +7°C° 0 mm 4 mps 748 mmHg 82%
    18:00 +7°C° 0 mm 4 mps 749 mmHg 83%
    19:00 +8°C° 0.1 mm 3 mps 748 mmHg 86%
    20:00 +8°C° 0.1 mm 3 mps 748 mmHg 88%
    21:00 +8°C° 0.1 mm 2 mps 748 mmHg 90%
    22:00 +8°C° 0.9 mm 3 mps 747 mmHg 91%
    23:00 +8°C° 0.9 mm 3 mps 746 mmHg 93%

    Tomorrow, 15 October, Tuesday

    Time Temperature Precipitation Wind Pressure Humidity
    00:00 +7°C° 0.9 mm 4 mps 745 mmHg 94%
    01:00 +9°C° 0.2 mm 6 mps 744 mmHg 93%
    02:00 +10°C° 0.2 mm 7 mps 743 mmHg 91%
    03:00 +12°C° 0.2 mm 8 mps 742 mmHg 90%
    04:00 +12°C° 0.1 mm 8 mps 741 mmHg 89%
    05:00 +12°C° 0.1 mm 8 mps 741 mmHg 89%
    06:00 +12°C° 0.1 mm 7 mps 740 mmHg 88%
    07:00 +12°C° 0.1 mm 7 mps 741 mmHg 87%
    08:00 +12°C° 0.1 mm 7 mps 741 mmHg 86%
    09:00 +12°C° 0.1 mm 7 mps 741 mmHg 85%
    10:00 +12°C° 0.4 mm 7 mps 742 mmHg 82%
    11:00 +12°C° 0.4 mm 7 mps 743 mmHg 80%
    12:00 +12°C° 0.4 mm 7 mps 743 mmHg 77%
    13:00 +11°C° 0 mm 7 mps 744 mmHg 76%
    14:00 +10°C° 0 mm 7 mps 745 mmHg 75%
    15:00 +9°C° 0 mm 6 mps 746 mmHg 74%
    16:00 +8°C° 0 mm 6 mps 747 mmHg 75%
    17:00 +8°C° 0 mm 5 mps 748 mmHg 76%
    18:00 +7°C° 0 mm 5 mps 749 mmHg 78%
    19:00 +6°C° 0 mm 5 mps 749 mmHg 78%
    20:00 +5°C° 0 mm 4 mps 750 mmHg 78%
    21:00 +5°C° 0 mm 4 mps 751 mmHg 78%
    22:00 +4°C° 0 mm 4 mps 751 mmHg 78%
    23:00 +3°C° 0 mm 4 mps 752 mmHg 79%

    Day after tomorrow, 16 October, Wednesday

    Time Temperature Precipitation Wind Pressure Humidity
    00:00 +3°C° 0 mm 3 mps 752 mmHg 79%
    01:00 +1°C° 0 mm 4 mps 753 mmHg 77%
    02:00 +1°C° 0 mm 4 mps 753 mmHg 74%
    03:00 +1°C° 0 mm 4 mps 754 mmHg 71%
    04:00 +1°C° 0 mm 4 mps 754 mmHg 73%
    05:00 +1°C° 0 mm 3 mps 755 mmHg 76%
    06:00 +1°C° 0 mm 3 mps 755 mmHg 78%
    07:00 +1°C° 0 mm 3 mps 755 mmHg 75%
    08:00 +1°C° 0 mm 3 mps 756 mmHg 72%
    09:00 +2°C° 0 mm 3 mps 756 mmHg 69%
    10:00 +2°C° 0 mm 3 mps 756 mmHg 66%
    11:00 +3°C° 0 mm 3 mps 756 mmHg 63%
    12:00 +4°C° 0 mm 2 mps 757 mmHg 59%
    13:00 +5°C° 0 mm 2 mps 757 mmHg 59%
    14:00 +5°C° 0 mm 2 mps 757 mmHg 58%
    15:00 +5°C° 0 mm 2 mps 757 mmHg 58%
    16:00 +5°C° 0 mm 1 mps 757 mmHg 62%
    17:00 +5°C° 0 mm 1 mps 757 mmHg 67%
    18:00 +3°C° 0 mm 0 mps 757 mmHg 71%
    19:00 +3°C° 0 mm 0 mps 757 mmHg 72%
    20:00 +3°C° 0 mm 1 mps 757 mmHg 73%
    21:00 +3°C° 0 mm 1 mps 757 mmHg 73%
    22:00 +3°C° 0 mm 1 mps 757 mmHg 74%
    23:00 +2°C° 0 mm 2 mps 757 mmHg 75%

    17 October, Thursday

    Time Temperature Precipitation Wind Pressure Humidity
    00:00 +2°C° 0 mm 2 mps 756 mmHg 76%
    01:00 +2°C° 0 mm 2 mps 756 mmHg 76%
    02:00 +3°C° 0 mm 2 mps 756 mmHg 75%
    03:00 +3°C° 0 mm 2 mps 756 mmHg 75%
    04:00 +2°C° 0 mm 3 mps 755 mmHg 75%
    05:00 +2°C° 0 mm 3 mps 755 mmHg 74%
    06:00 +1°C° 0 mm 4 mps 754 mmHg 74%
    07:00 +2°C° 0 mm 5 mps 754 mmHg 72%
    08:00 +3°C° 0 mm 5 mps 753 mmHg 70%
    09:00 +4°C° 0 mm 6 mps 752 mmHg 68%
    10:00 +5°C° 0 mm 7 mps 751 mmHg 67%
    11:00 +8°C° 0 mm 7 mps 751 mmHg 67%
    12:00 +9°C° 0 mm 8 mps 750 mmHg 66%
    13:00 +10°C° 0 mm 8 mps 750 mmHg 66%
    14:00 +10°C° 0 mm 8 mps 749 mmHg 66%
    15:00 +11°C° 0 mm 8 mps 748 mmHg 67%
    16:00 +10°C° 0 mm 8 mps 748 mmHg 68%
    17:00 +10°C° 0 mm 8 mps 747 mmHg 70%
    18:00 +10°C° 0 mm 8 mps 747 mmHg 72%
    19:00 +10°C° 0.1 mm 8 mps 746 mmHg 74%
    20:00 +10°C° 0.1 mm 8 mps 746 mmHg 77%
    21:00 +10°C° 0.1 mm 8 mps 746 mmHg 79%
    22:00 +10°C° 0 mm 7 mps 745 mmHg 81%
    23:00 +10°C° 0 mm 7 mps 745 mmHg 84%

    18 October, Friday

    Time Temperature Precipitation Wind Pressure Humidity
    00:00 +10°C° 0 mm 6 mps 744 mmHg 87%
    01:00 +10°C° 0 mm 6 mps 744 mmHg 88%
    02:00 +10°C° 0 mm 6 mps 745 mmHg 88%
    03:00 +10°C° 0 mm 6 mps 745 mmHg 89%
    04:00 +9°C° 0.1 mm 6 mps 745 mmHg 87%
    05:00 +8°C° 0.1 mm 6 mps 746 mmHg 86%
    06:00 +6°C° 0.1 mm 5 mps 746 mmHg 85%
    07:00 +4°C° 0.2 mm 6 mps 747 mmHg 81%
    08:00 +3°C° 0.2 mm 7 mps 748 mmHg 76%
    09:00 0°C° 0.2 mm 7 mps 749 mmHg 72%
    10:00 +2°C° 0 mm 7 mps 750 mmHg 69%
    11:00 +2°C° 0 mm 6 mps 751 mmHg 67%
    12:00 +2°C° 0 mm 6 mps 752 mmHg 64%
    13:00 +2°C° 0 mm 6 mps 752 mmHg 64%
    14:00 +2°C° 0 mm 6 mps 753 mmHg 64%
    15:00 +2°C° 0 mm 6 mps 753 mmHg 64%
    16:00 +1°C° 0 mm 5 mps 754 mmHg 68%
    17:00 0°C° 0 mm 5 mps 754 mmHg 72%
    18:00 -1°C° 0 mm 4 mps 755 mmHg 75%
    19:00 -1°C° 0 mm 4 mps 756 mmHg 77%
    20:00 -1°C° 0 mm 3 mps 756 mmHg 79%
    21:00 -1°C° 0 mm 3 mps 757 mmHg 81%
    22:00 -1°C° 0 mm 3 mps 757 mmHg 82%
    23:00 -2°C° 0 mm 2 mps 757 mmHg 83%

    19 October, Saturday

    Time Temperature Precipitation Wind Pressure Humidity
    00:00 -2°C° 0 mm 2 mps 758 mmHg 84%
    01:00 -2°C° 0 mm 2 mps 758 mmHg 84%
    02:00 -2°C° 0 mm 2 mps 758 mmHg 85%
    03:00 0°C° 0 mm 1 mps 758 mmHg 85%
    04:00 0°C° 0 mm 1 mps 758 mmHg 85%
    05:00 0°C° 0 mm 1 mps 759 mmHg 85%
    06:00 0°C° 0 mm 1 mps 759 mmHg 85%
    07:00 0°C° 0 mm 1 mps 759 mmHg 79%
    08:00 0°C° 0 mm 0 mps 759 mmHg 73%
    09:00 +1°C° 0 mm 0 mps 759 mmHg 67%
    10:00 +3°C° 0 mm 1 mps 759 mmHg 62%
    11:00 +3°C° 0 mm 1 mps 759 mmHg 57%
    12:00 +3°C° 0 mm 2 mps 759 mmHg 52%
    13:00 +4°C° 0 mm 2 mps 759 mmHg 53%
    14:00 +4°C° 0 mm 2 mps 758 mmHg 54%
    15:00 +4°C° 0 mm 2 mps 758 mmHg 55%
    16:00 +3°C° 0 mm 2 mps 758 mmHg 59%
    17:00 +2°C° 0 mm 2 mps 758 mmHg 62%
    18:00 +1°C° 0 mm 2 mps 757 mmHg 66%
    19:00 +1°C° 0 mm 2 mps 757 mmHg 67%
    20:00 +1°C° 0 mm 2 mps 757 mmHg 67%
    21:00 +1°C° 0 mm 2 mps 757 mmHg 67%
    22:00 +1°C° 0 mm 2 mps 757 mmHg 68%
    23:00 0°C° 0 mm 3 mps 757 mmHg 69%
    Show more